| time (UTC) | temp F | wind direction | speed knots | gust knots | rain 1hr in | rain 24hr in | rain mn in | humidity % | barometer mb |
| 20260508122806 | 49 | 292 | 5.2 | 6.1 | 0.00 | 0.00 | 0.00 | 69 | 1008.9 |
| 20260508122306 | 48 | 34 | 2.6 | 2.6 | 0.00 | 0.00 | 0.00 | 71 | 1009.0 |
| 20260508121800 | 49 | 321 | 3.5 | 4.3 | 0.00 | 0.00 | 0.00 | 71 | 1009.1 |
| 20260508121259 | 48 | 306 | 1.7 | 1.7 | 0.00 | 0.00 | 0.00 | 74 | 1009.2 |
| 20260508120756 | 47 | 303 | 5.2 | 7.8 | 0.00 | 0.00 | 0.00 | 73 | 1009.2 |
| 20260508120254 | 48 | 275 | 3.5 | 5.2 | 0.00 | 0.00 | 0.00 | 73 | 1009.2 |
| 20260508115751 | 47 | 296 | 4.3 | 6.1 | 0.00 | 0.00 | 0.00 | 73 | 1009.1 |
| 20260508115248 | 48 | 261 | 5.2 | 7.0 | 0.00 | 0.00 | 0.00 | 72 | 1009.4 |
| 20260508114744 | 48 | 295 | 0.9 | 0.9 | 0.00 | 0.00 | 0.00 | 73 | 1009.1 |
| 20260508114241 | 48 | 344 | 0.0 | 0.0 | 0.00 | 0.00 | 0.00 | 75 | 1009.1 |
| 20260508113738 | 46 | 302 | 3.5 | 4.3 | 0.00 | 0.00 | 0.00 | 74 | 1008.9 |
| 20260508113237 | 46 | 348 | 0.0 | 0.0 | 0.00 | 0.00 | 0.00 | 75 | 1009.0 |
| 20260508112732 | 46 | 327 | 5.2 | 7.0 | 0.00 | 0.00 | 0.00 | 75 | 1008.8 |
| 20260508112229 | 46 | 332 | 6.1 | 7.0 | 0.00 | 0.00 | 0.00 | 75 | 1008.9 |
| 20260508111726 | 45 | 0 | 1.7 | 2.6 | 0.00 | 0.00 | 0.00 | 76 | 1008.9 |
| 20260508111224 | 45 | 310 | 2.6 | 2.6 | 0.00 | 0.00 | 0.00 | 75 | 1009.0 |
| 20260508110721 | 45 | 359 | 1.7 | 2.6 | 0.00 | 0.00 | 0.00 | 75 | 1009.0 |
| 20260508110218 | 44 | 279 | 1.7 | 1.7 | 0.00 | 0.00 | 0.00 | 76 | 1008.9 |
| 20260508105718 | 43 | 316 | 3.5 | 4.3 | 0.00 | 0.00 | 0.00 | 77 | 1008.8 |
| 20260508105215 | 43 | 342 | 0.9 | 0.9 | 0.00 | 0.00 | 0.00 | 80 | 1008.8 |
| 20260508104712 | 42 | 17 | 0.0 | 0.0 | 0.00 | 0.00 | 0.00 | 81 | 1008.6 |
| 20260508104209 | 40 | 353 | 0.0 | 0.0 | 0.00 | 0.00 | 0.00 | 86 | 1008.6 |
| 20260508103706 | 39 | 349 | 0.0 | 0.0 | 0.00 | 0.00 | 0.00 | 91 | 1008.7 |
| 20260508103203 | 37 | 346 | 0.0 | 0.0 | 0.00 | 0.00 | 0.00 | 97 | 1008.6 |
| 20260508102700 | 36 | 24 | 0.0 | 0.0 | 0.00 | 0.00 | 0.00 | 99 | 1008.5 |
| 20260508102159 | 35 | 351 | 0.0 | 0.0 | 0.00 | 0.00 | 0.00 | 99 | 1008.3 |
| 20260508101655 | 34 | 352 | 0.0 | 0.0 | 0.00 | 0.00 | 0.00 | 99 | 1008.3 |
| 20260508101153 | 34 | 2 | 0.0 | 0.0 | 0.00 | 0.00 | 0.00 | 99 | 1008.2 |
| 20260508100650 | 33 | 2 | 0.0 | 0.0 | 0.00 | 0.00 | 0.00 | 99 | 1008.5 |
| 20260508100148 | 33 | 1 | 0.0 | 0.0 | 0.00 | 0.00 | 0.00 | 99 | 1008.4 |
| 20260508095644 | 33 | 7 | 0.0 | 0.0 | 0.00 | 0.00 | 0.00 | 99 | 1008.1 |
| 20260508095142 | 33 | 11 | 0.0 | 0.0 | 0.00 | 0.00 | 0.00 | 99 | 1008.2 |
| 20260508094638 | 33 | 350 | 0.0 | 0.0 | 0.00 | 0.00 | 0.00 | 99 | 1008.0 |
| 20260508094135 | 33 | 1 | 0.0 | 0.0 | 0.00 | 0.00 | 0.00 | 99 | 1008.1 |
| 20260508093633 | 33 | 16 | 0.0 | 0.0 | 0.00 | 0.00 | 0.00 | 98 | 1008.0 |
| 20260508093130 | 33 | 17 | 0.0 | 0.0 | 0.00 | 0.00 | 0.00 | 98 | 1008.1 |
| 20260508092627 | 33 | 15 | 0.0 | 0.0 | 0.00 | 0.00 | 0.00 | 98 | 1008.1 |
| 20260508092126 | 33 | 10 | 0.0 | 0.0 | 0.00 | 0.00 | 0.00 | 98 | 1008.0 |
| 20260508091622 | 33 | 354 | 0.0 | 0.0 | 0.00 | 0.00 | 0.00 | 98 | 1008.1 |
| 20260508091120 | 33 | 352 | 0.0 | 0.0 | 0.00 | 0.00 | 0.00 | 97 | 1007.8 |
| 20260508090618 | 33 | 351 | 0.0 | 0.0 | 0.00 | 0.00 | 0.00 | 97 | 1007.8 |
| 20260508090115 | 33 | 359 | 0.0 | 0.0 | 0.00 | 0.00 | 0.00 | 97 | 1007.6 |
| 20260508085611 | 33 | 0 | 0.0 | 0.0 | 0.00 | 0.00 | 0.00 | 97 | 1007.4 |
| 20260508085108 | 33 | 1 | 0.0 | 0.0 | 0.00 | 0.00 | 0.00 | 97 | 1007.8 |
| 20260508084604 | 33 | 1 | 0.0 | 0.0 | 0.00 | 0.00 | 0.00 | 96 | 1007.5 |
| 20260508084102 | 34 | 2 | 0.0 | 0.0 | 0.00 | 0.00 | 0.00 | 96 | 1007.7 |
| 20260508083559 | 34 | 357 | 0.0 | 0.0 | 0.00 | 0.00 | 0.00 | 96 | 1007.8 |
| 20260508083056 | 34 | 357 | 0.0 | 0.0 | 0.00 | 0.00 | 0.00 | 96 | 1007.8 |
| 20260508082551 | 34 | 354 | 0.0 | 0.0 | 0.00 | 0.00 | 0.00 | 95 | 1007.7 |
| 20260508082049 | 34 | 354 | 0.0 | 0.0 | 0.00 | 0.00 | 0.00 | 94 | 1007.8 |
| 20260508081546 | 34 | 354 | 0.0 | 0.0 | 0.00 | 0.00 | 0.00 | 94 | 1007.8 |
| 20260508081042 | 34 | 348 | 0.0 | 0.0 | 0.00 | 0.00 | 0.00 | 93 | 1007.6 |
| 20260508080540 | 35 | 354 | 0.0 | 0.0 | 0.00 | 0.00 | 0.00 | 93 | 1007.7 |
| 20260508080037 | 35 | 354 | 0.0 | 0.0 | 0.00 | 0.00 | 0.00 | 92 | 1007.7 |
| 20260508075534 | 35 | 354 | 0.0 | 0.0 | 0.00 | 0.00 | 0.00 | 91 | 1007.6 |
| 20260508075032 | 36 | 354 | 0.0 | 0.0 | 0.00 | 0.00 | 0.00 | 90 | 1007.4 |
| 20260508074529 | 36 | 354 | 0.0 | 0.0 | 0.00 | 0.00 | 0.00 | 88 | 1007.5 |
| 20260508074026 | 37 | 354 | 0.0 | 0.0 | 0.00 | 0.00 | 0.00 | 86 | 1007.5 |
| 20260508073523 | 37 | 350 | 0.0 | 0.0 | 0.00 | 0.00 | 0.00 | 85 | 1007.4 |
| 20260508073021 | 37 | 349 | 0.0 | 0.0 | 0.00 | 0.00 | 0.00 | 86 | 1007.4 |
| 20260508072516 | 37 | 346 | 0.0 | 0.0 | 0.00 | 0.00 | 0.00 | 87 | 1007.5 |
| 20260508072014 | 36 | 344 | 0.0 | 0.0 | 0.00 | 0.00 | 0.00 | 88 | 1007.4 |
| 20260508071511 | 36 | 349 | 0.0 | 0.0 | 0.00 | 0.00 | 0.00 | 90 | 1007.3 |
| 20260508071009 | 36 | 354 | 0.0 | 0.0 | 0.00 | 0.00 | 0.00 | 90 | 1007.2 |
| 20260508070506 | 35 | 359 | 0.0 | 0.0 | 0.00 | 0.00 | 0.00 | 91 | 1007.4 |
| 20260508070005 | 35 | 354 | 0.0 | 0.0 | 0.00 | 0.00 | 0.00 | 91 | 1007.2 |
| 20260508065502 | 35 | 2 | 0.0 | 0.0 | 0.00 | 0.00 | 0.00 | 92 | 1007.4 |
| 20260508065000 | 35 | 6 | 0.0 | 0.0 | 0.00 | 0.00 | 0.00 | 92 | 1007.3 |
| 20260508064457 | 35 | 12 | 0.0 | 0.0 | 0.00 | 0.00 | 0.00 | 92 | 1007.4 |
| 20260508063955 | 35 | 21 | 0.0 | 0.0 | 0.00 | 0.00 | 0.00 | 94 | 1007.3 |
| 20260508063452 | 35 | 9 | 0.0 | 0.0 | 0.00 | 0.00 | 0.00 | 94 | 1007.3 |
| 20260508062950 | 35 | 4 | 0.0 | 0.0 | 0.00 | 0.00 | 0.00 | 93 | 1007.5 |
| 20260508062447 | 35 | 2 | 0.0 | 0.0 | 0.00 | 0.00 | 0.00 | 93 | 1007.3 |
| 20260508061944 | 35 | 1 | 0.0 | 0.0 | 0.00 | 0.00 | 0.00 | 93 | 1007.4 |
| 20260508061442 | 35 | 1 | 0.0 | 0.0 | 0.00 | 0.00 | 0.00 | 94 | 1007.4 |
| 20260508060937 | 35 | 1 | 0.0 | 0.0 | 0.00 | 0.00 | 0.00 | 94 | 1007.5 |
| 20260508060435 | 35 | 2 | 0.0 | 0.0 | 0.00 | 0.00 | 0.00 | 93 | 1007.6 |
| 20260508055931 | 35 | 0 | 0.0 | 0.0 | 0.00 | 0.00 | 0.00 | 93 | 1007.7 |
| 20260508055428 | 36 | 359 | 0.0 | 0.0 | 0.00 | 0.00 | 0.00 | 92 | 1007.5 |
| 20260508054924 | 36 | 359 | 0.0 | 0.0 | 0.00 | 0.00 | 0.00 | 92 | 1007.6 |
| 20260508054422 | 36 | 358 | 0.0 | 0.0 | 0.00 | 0.00 | 0.00 | 92 | 1007.8 |
| 20260508053919 | 36 | 358 | 0.0 | 0.0 | 0.00 | 0.00 | 0.00 | 91 | 1007.7 |
| 20260508053415 | 36 | 359 | 0.0 | 0.0 | 0.00 | 0.00 | 0.00 | 89 | 1007.7 |
| 20260508052913 | 36 | 358 | 0.0 | 0.0 | 0.00 | 0.00 | 0.00 | 89 | 1007.6 |
| 20260508052411 | 36 | 358 | 0.0 | 0.0 | 0.00 | 0.00 | 0.00 | 90 | 1007.8 |
| 20260508051906 | 37 | 358 | 0.0 | 0.0 | 0.00 | 0.00 | 0.00 | 89 | 1007.8 |
| 20260508051402 | 37 | 358 | 0.0 | 0.0 | 0.00 | 0.00 | 0.00 | 90 | 1007.8 |
| 20260508050858 | 37 | 358 | 0.0 | 0.0 | 0.00 | 0.00 | 0.00 | 90 | 1008.0 |
| 20260508050356 | 37 | 358 | 0.0 | 0.0 | 0.00 | 0.00 | 0.00 | 89 | 1007.7 |
| 20260508045851 | 38 | 358 | 0.0 | 0.0 | 0.00 | 0.00 | 0.00 | 88 | 1007.8 |
| 20260508045349 | 39 | 358 | 0.0 | 0.0 | 0.00 | 0.00 | 0.00 | 86 | 1007.9 |
| 20260508044847 | 39 | 358 | 0.0 | 0.0 | 0.00 | 0.00 | 0.00 | 83 | 1007.9 |
| 20260508044343 | 39 | 358 | 0.0 | 0.0 | 0.00 | 0.00 | 0.00 | 83 | 1008.1 |
| 20260508043839 | 39 | 358 | 0.0 | 0.0 | 0.00 | 0.00 | 0.00 | 83 | 1008.0 |
| 20260508043337 | 40 | 358 | 0.0 | 0.0 | 0.00 | 0.00 | 0.00 | 81 | 1008.0 |
| 20260508042833 | 40 | 357 | 0.0 | 0.0 | 0.00 | 0.00 | 0.00 | 81 | 1008.1 |
| 20260508042331 | 40 | 358 | 0.0 | 0.0 | 0.00 | 0.00 | 0.00 | 81 | 1008.2 |
| 20260508041827 | 40 | 358 | 0.0 | 0.0 | 0.00 | 0.00 | 0.00 | 82 | 1008.1 |
| 20260508041324 | 41 | 358 | 0.0 | 0.0 | 0.00 | 0.00 | 0.00 | 80 | 1008.2 |
| 20260508040820 | 40 | 358 | 0.0 | 0.0 | 0.00 | 0.00 | 0.00 | 80 | 1008.2 |
| 20260508040318 | 40 | 358 | 0.0 | 0.0 | 0.00 | 0.00 | 0.00 | 80 | 1008.2 |
| 20260508035815 | 40 | 358 | 0.0 | 0.0 | 0.00 | 0.19 | 0.19 | 80 | 1008.3 |
| 20260508035313 | 40 | 358 | 0.0 | 0.0 | 0.00 | 0.19 | 0.19 | 79 | 1008.5 |
| 20260508034809 | 40 | 358 | 0.0 | 0.0 | 0.00 | 0.19 | 0.19 | 83 | 1008.3 |
| 20260508034306 | 40 | 354 | 0.0 | 0.0 | 0.00 | 0.19 | 0.19 | 83 | 1008.6 |
| 20260508033803 | 40 | 355 | 0.0 | 0.0 | 0.00 | 0.19 | 0.19 | 82 | 1008.6 |
| 20260508033301 | 40 | 354 | 0.0 | 0.0 | 0.00 | 0.19 | 0.19 | 82 | 1008.4 |
| 20260508032758 | 40 | 355 | 0.0 | 0.0 | 0.00 | 0.19 | 0.19 | 83 | 1008.4 |
| 20260508032256 | 40 | 351 | 0.0 | 0.0 | 0.00 | 0.19 | 0.19 | 82 | 1008.5 |
| 20260508031752 | 41 | 3 | 0.0 | 0.0 | 0.00 | 0.19 | 0.19 | 81 | 1008.2 |
| 20260508031249 | 41 | 5 | 0.0 | 0.0 | 0.00 | 0.19 | 0.19 | 82 | 1008.4 |
| 20260508030745 | 42 | 11 | 0.0 | 0.0 | 0.00 | 0.19 | 0.19 | 79 | 1008.4 |
| 20260508030243 | 44 | 354 | 0.0 | 0.0 | 0.00 | 0.19 | 0.19 | 75 | 1008.4 |
| 20260508025739 | 44 | 354 | 0.0 | 0.0 | 0.00 | 0.19 | 0.19 | 69 | 1008.1 |
| 20260508025236 | 44 | 351 | 0.0 | 0.0 | 0.00 | 0.19 | 0.19 | 67 | 1008.0 |
| 20260508024732 | 45 | 345 | 0.0 | 0.0 | 0.00 | 0.19 | 0.19 | 66 | 1008.0 |
| 20260508024229 | 46 | 351 | 0.0 | 0.0 | 0.00 | 0.19 | 0.19 | 65 | 1008.0 |
| 20260508023726 | 46 | 6 | 0.0 | 0.0 | 0.00 | 0.19 | 0.19 | 63 | 1008.1 |
| 20260508023224 | 46 | 13 | 0.0 | 0.0 | 0.00 | 0.19 | 0.19 | 62 | 1008.2 |
| 20260508022719 | 47 | 359 | 0.0 | 0.0 | 0.00 | 0.19 | 0.19 | 61 | 1008.1 |
| 20260508022216 | 47 | 18 | 0.9 | 0.9 | 0.00 | 0.19 | 0.19 | 60 | 1008.3 |
| 20260508021713 | 47 | 356 | 0.0 | 0.0 | 0.00 | 0.19 | 0.19 | 59 | 1008.0 |
| 20260508021208 | 48 | 355 | 0.0 | 0.0 | 0.00 | 0.19 | 0.19 | 60 | 1008.3 |
| 20260508020706 | 47 | 12 | 0.9 | 1.7 | 0.00 | 0.19 | 0.19 | 61 | 1008.2 |
| 20260508020203 | 48 | 353 | 0.0 | 0.0 | 0.00 | 0.19 | 0.19 | 62 | 1007.9 |
| 20260508015700 | 48 | 332 | 2.6 | 4.3 | 0.00 | 0.19 | 0.19 | 62 | 1008.1 |
| 20260508015157 | 48 | 347 | 0.0 | 0.0 | 0.00 | 0.19 | 0.19 | 63 | 1008.2 |
| 20260508014653 | 48 | 3 | 0.0 | 0.0 | 0.00 | 0.19 | 0.19 | 61 | 1008.4 |
| 20260508014149 | 48 | 355 | 0.0 | 0.0 | 0.00 | 0.19 | 0.19 | 61 | 1008.4 |
| 20260508013646 | 49 | 356 | 0.0 | 0.0 | 0.00 | 0.19 | 0.19 | 61 | 1008.3 |
| 20260508013143 | 49 | 331 | 0.9 | 0.9 | 0.00 | 0.19 | 0.19 | 60 | 1008.4 |
| 20260508012640 | 50 | 15 | 0.0 | 0.9 | 0.00 | 0.19 | 0.19 | 59 | 1008.3 |
| 20260508012137 | 50 | 347 | 1.7 | 1.7 | 0.00 | 0.19 | 0.19 | 58 | 1008.3 |
| 20260508011636 | 50 | 341 | 0.9 | 0.9 | 0.00 | 0.19 | 0.19 | 59 | 1008.2 |
| 20260508011133 | 50 | 350 | 0.0 | 0.0 | 0.00 | 0.19 | 0.19 | 59 | 1008.1 |
| 20260508010629 | 50 | 351 | 0.0 | 0.9 | 0.00 | 0.19 | 0.19 | 59 | 1008.1 |
| 20260508010128 | 51 | 337 | 2.6 | 4.3 | 0.00 | 0.19 | 0.19 | 59 | 1008.3 |
| 20260508005624 | 51 | 4 | 2.6 | 2.6 | 0.00 | 0.19 | 0.19 | 60 | 1008.0 |
| 20260508005120 | 51 | 350 | 0.9 | 1.7 | 0.00 | 0.19 | 0.19 | 59 | 1007.9 |
| 20260508004616 | 52 | 329 | 3.5 | 5.2 | 0.00 | 0.19 | 0.19 | 59 | 1007.9 |
| 20260508004113 | 52 | 337 | 2.6 | 4.3 | 0.00 | 0.19 | 0.19 | 62 | 1008.0 |
| 20260508003609 | 51 | 349 | 0.0 | 0.0 | 0.00 | 0.19 | 0.19 | 70 | 1007.8 |
| 20260508003108 | 51 | 329 | 0.0 | 0.0 | 0.00 | 0.19 | 0.19 | 79 | 1007.6 |
| 20260508002604 | 49 | 53 | 2.6 | 4.3 | 0.00 | 0.19 | 0.19 | 92 | 1007.5 |
| 20260508002101 | 49 | 339 | 0.0 | 0.0 | 0.00 | 0.19 | 0.19 | 92 | 1007.5 |
| 20260508001556 | 49 | 303 | 0.0 | 0.0 | 0.00 | 0.19 | 0.19 | 91 | 1007.2 |
| 20260508001053 | 49 | 6 | 0.0 | 0.0 | 0.00 | 0.19 | 0.19 | 90 | 1007.3 |
| 20260508000549 | 49 | 349 | 0.0 | 0.0 | 0.00 | 0.19 | 0.19 | 89 | 1007.0 |
| 20260508000047 | 49 | 5 | 0.0 | 0.0 | 0.00 | 0.19 | 0.19 | 88 | 1007.1 |
| 20260507235543 | 50 | 325 | 0.0 | 0.0 | 0.00 | 0.19 | 0.19 | 86 | 1006.6 |
| 20260507235040 | 50 | 312 | 0.0 | 0.0 | 0.00 | 0.19 | 0.19 | 85 | 1006.9 |
| 20260507234536 | 51 | 14 | 0.0 | 0.0 | 0.00 | 0.19 | 0.19 | 85 | 1006.7 |
| 20260507234033 | 51 | 355 | 0.0 | 0.0 | 0.00 | 0.19 | 0.19 | 83 | 1006.6 |
| 20260507233530 | 51 | 155 | 0.9 | 1.7 | 0.00 | 0.19 | 0.19 | 83 | 1006.3 |
| 20260507233029 | 51 | 184 | 0.9 | 0.9 | 0.00 | 0.19 | 0.19 | 82 | 1006.2 |
| 20260507232524 | 51 | 285 | 0.0 | 0.0 | 0.00 | 0.19 | 0.19 | 82 | 1006.2 |
| 20260507232022 | 52 | 247 | 1.7 | 1.7 | 0.00 | 0.19 | 0.19 | 81 | 1006.0 |
| 20260507231518 | 52 | 287 | 0.0 | 0.0 | 0.00 | 0.19 | 0.19 | 81 | 1005.8 |
| 20260507231016 | 53 | 227 | 0.0 | 0.0 | 0.00 | 0.19 | 0.19 | 80 | 1005.8 |
| 20260507230512 | 53 | 274 | 0.0 | 0.0 | 0.00 | 0.19 | 0.19 | 80 | 1005.7 |
| 20260507230009 | 52 | 269 | 0.0 | 0.0 | 0.00 | 0.19 | 0.19 | 80 | 1005.8 |
| 20260507225504 | 53 | 226 | 0.0 | 0.0 | 0.00 | 0.19 | 0.19 | 80 | 1005.8 |
| 20260507225000 | 53 | 183 | 1.7 | 2.6 | 0.00 | 0.19 | 0.19 | 79 | 1005.5 |
| 20260507224456 | 53 | 163 | 1.7 | 1.7 | 0.00 | 0.19 | 0.19 | 79 | 1005.5 |
| 20260507223953 | 53 | 245 | 1.7 | 1.7 | 0.00 | 0.19 | 0.19 | 78 | 1005.3 |
| 20260507223449 | 54 | 239 | 0.0 | 0.0 | 0.00 | 0.19 | 0.19 | 78 | 1005.4 |
| 20260507222946 | 54 | 311 | 0.0 | 0.0 | 0.00 | 0.19 | 0.19 | 77 | 1005.3 |
| 20260507222443 | 54 | 189 | 0.0 | 0.0 | 0.00 | 0.19 | 0.19 | 77 | 1005.6 |
| 20260507221939 | 55 | 36 | 0.9 | 1.7 | 0.00 | 0.19 | 0.19 | 76 | 1005.4 |
| 20260507221436 | 55 | 278 | 1.7 | 1.7 | 0.00 | 0.19 | 0.19 | 74 | 1005.7 |
| 20260507220932 | 56 | 190 | 2.6 | 5.2 | 0.00 | 0.19 | 0.19 | 74 | 1005.3 |
| 20260507220431 | 56 | 212 | 3.5 | 5.2 | 0.00 | 0.19 | 0.19 | 73 | 1005.6 |
| 20260507215927 | 56 | 262 | 1.7 | 1.7 | 0.00 | 0.19 | 0.19 | 74 | 1005.6 |
| 20260507215423 | 56 | 195 | 1.7 | 4.3 | 0.00 | 0.19 | 0.19 | 73 | 1005.5 |
| 20260507214921 | 56 | 217 | 2.6 | 2.6 | 0.00 | 0.19 | 0.19 | 74 | 1005.6 |
| 20260507214419 | 56 | 183 | 3.5 | 4.3 | 0.00 | 0.19 | 0.19 | 73 | 1005.6 |
| 20260507213914 | 56 | 189 | 2.6 | 6.1 | 0.00 | 0.19 | 0.19 | 73 | 1005.4 |
| 20260507213410 | 58 | 167 | 2.6 | 4.3 | 0.00 | 0.19 | 0.19 | 72 | 1005.7 |
| 20260507212908 | 57 | 286 | 1.7 | 1.7 | 0.00 | 0.19 | 0.19 | 72 | 1005.6 |
| 20260507212403 | 56 | 285 | 0.0 | 0.9 | 0.00 | 0.19 | 0.19 | 74 | 1005.6 |
| 20260507211900 | 55 | 265 | 0.9 | 0.9 | 0.00 | 0.19 | 0.19 | 76 | 1005.6 |
| 20260507211356 | 57 | 102 | 2.6 | 4.3 | 0.00 | 0.19 | 0.19 | 72 | 1005.6 |
| 20260507210854 | 57 | 328 | 3.5 | 5.2 | 0.00 | 0.19 | 0.19 | 71 | 1005.5 |
| 20260507210350 | 55 | 214 | 1.7 | 2.6 | 0.00 | 0.19 | 0.19 | 75 | 1005.4 |
| 20260507205847 | 55 | 176 | 2.6 | 5.2 | 0.00 | 0.19 | 0.19 | 73 | 1005.5 |
| 20260507205344 | 56 | 200 | 6.1 | 7.8 | 0.00 | 0.19 | 0.19 | 72 | 1005.4 |
| 20260507204840 | 56 | 224 | 4.3 | 5.2 | 0.00 | 0.19 | 0.19 | 71 | 1005.3 |
| 20260507204337 | 56 | 244 | 2.6 | 2.6 | 0.00 | 0.19 | 0.19 | 71 | 1005.3 |
| 20260507203835 | 57 | 173 | 1.7 | 2.6 | 0.00 | 0.19 | 0.19 | 70 | 1005.2 |
| 20260507203333 | 60 | 83 | 2.6 | 7.0 | 0.00 | 0.19 | 0.19 | 66 | 1005.0 |
| 20260507202829 | 59 | 241 | 2.6 | 5.2 | 0.00 | 0.19 | 0.19 | 67 | 1005.3 |
| 20260507202325 | 59 | 182 | 6.1 | 8.7 | 0.00 | 0.19 | 0.19 | 67 | 1005.2 |
| 20260507201821 | 59 | 228 | 5.2 | 7.0 | 0.00 | 0.19 | 0.19 | 66 | 1005.0 |
| 20260507201317 | 59 | 179 | 5.2 | 6.1 | 0.00 | 0.19 | 0.19 | 67 | 1005.0 |
| 20260507200813 | 60 | 29 | 2.6 | 4.3 | 0.00 | 0.19 | 0.19 | 65 | 1005.0 |
| 20260507200309 | 59 | 209 | 1.7 | 2.6 | 0.00 | 0.19 | 0.19 | 68 | 1005.1 |
| 20260507195805 | 59 | 123 | 3.5 | 4.3 | 0.00 | 0.19 | 0.19 | 69 | 1005.1 |
| 20260507195305 | 57 | 162 | 1.7 | 2.6 | 0.00 | 0.19 | 0.19 | 72 | 1005.2 |
| 20260507194800 | 57 | 216 | 4.3 | 6.1 | 0.00 | 0.19 | 0.19 | 73 | 1005.2 |
| 20260507194256 | 57 | 217 | 3.5 | 5.2 | 0.00 | 0.19 | 0.19 | 72 | 1005.2 |
| 20260507193753 | 59 | 165 | 2.6 | 4.3 | 0.00 | 0.19 | 0.19 | 71 | 1005.0 |
| 20260507193250 | 59 | 136 | 1.7 | 1.7 | 0.00 | 0.19 | 0.19 | 70 | 1005.2 |
| 20260507192745 | 58 | 109 | 2.6 | 6.1 | 0.00 | 0.19 | 0.19 | 71 | 1005.1 |
| 20260507192242 | 59 | 197 | 2.6 | 4.3 | 0.00 | 0.19 | 0.19 | 71 | 1005.1 |
| 20260507191739 | 59 | 122 | 5.2 | 7.0 | 0.00 | 0.19 | 0.19 | 70 | 1005.2 |
| 20260507191236 | 60 | 222 | 4.3 | 6.1 | 0.00 | 0.19 | 0.19 | 69 | 1005.1 |
| 20260507190732 | 62 | 259 | 2.6 | 4.3 | 0.00 | 0.19 | 0.19 | 67 | 1005.1 |
| 20260507190231 | 60 | 186 | 4.3 | 5.2 | 0.00 | 0.19 | 0.19 | 68 | 1005.3 |
| 20260507185729 | 62 | 313 | 4.3 | 7.0 | 0.00 | 0.19 | 0.19 | 66 | 1005.0 |
| 20260507185225 | 62 | 210 | 1.7 | 1.7 | 0.00 | 0.19 | 0.19 | 64 | 1005.1 |
| 20260507184723 | 62 | 145 | 2.6 | 2.6 | 0.00 | 0.19 | 0.19 | 62 | 1005.6 |
| 20260507184221 | 61 | 138 | 4.3 | 6.1 | 0.00 | 0.19 | 0.19 | 62 | 1005.4 |
| 20260507183717 | 62 | 170 | 1.7 | 1.7 | 0.00 | 0.19 | 0.19 | 63 | 1005.4 |
| 20260507183214 | 64 | 287 | 0.9 | 0.9 | 0.00 | 0.19 | 0.19 | 58 | 1005.3 |
| 20260507182712 | 64 | 256 | 0.9 | 1.7 | 0.00 | 0.19 | 0.19 | 58 | 1005.5 |
| 20260507182207 | 63 | 245 | 2.6 | 4.3 | 0.00 | 0.19 | 0.19 | 56 | 1005.3 |
| 20260507181703 | 63 | 247 | 0.9 | 0.9 | 0.00 | 0.19 | 0.19 | 53 | 1005.3 |
| 20260507181200 | 64 | 243 | 1.7 | 1.7 | 0.00 | 0.19 | 0.19 | 52 | 1005.2 |
| 20260507180656 | 62 | 198 | 0.0 | 0.0 | 0.00 | 0.19 | 0.19 | 54 | 1005.4 |
| 20260507180154 | 62 | 252 | 0.9 | 1.7 | 0.00 | 0.19 | 0.19 | 53 | 1005.3 |
| 20260507175649 | 62 | 314 | 5.2 | 6.1 | 0.00 | 0.19 | 0.19 | 49 | 1005.7 |
| 20260507175147 | 62 | 293 | 1.7 | 1.7 | 0.00 | 0.19 | 0.19 | 50 | 1005.7 |
| 20260507174644 | 63 | 313 | 1.7 | 2.6 | 0.00 | 0.19 | 0.19 | 51 | 1005.5 |
| 20260507174142 | 63 | 222 | 2.6 | 2.6 | 0.00 | 0.19 | 0.19 | 49 | 1005.6 |
| 20260507173639 | 62 | 76 | 1.7 | 2.6 | 0.00 | 0.19 | 0.19 | 51 | 1005.5 |
| 20260507173136 | 62 | 264 | 2.6 | 2.6 | 0.00 | 0.19 | 0.19 | 50 | 1005.5 |
| 20260507172632 | 61 | 289 | 0.9 | 0.9 | 0.00 | 0.19 | 0.19 | 52 | 1005.4 |
| 20260507172130 | 61 | 334 | 0.9 | 0.9 | 0.00 | 0.19 | 0.19 | 52 | 1005.5 |
| 20260507171624 | 64 | 274 | 3.5 | 5.2 | 0.00 | 0.19 | 0.19 | 49 | 1005.4 |
| 20260507171121 | 61 | 335 | 1.7 | 2.6 | 0.00 | 0.19 | 0.19 | 55 | 1005.7 |
| 20260507170618 | 61 | 272 | 2.6 | 2.6 | 0.00 | 0.19 | 0.19 | 53 | 1005.7 |
| 20260507170115 | 62 | 314 | 0.0 | 0.9 | 0.00 | 0.19 | 0.19 | 54 | 1005.7 |
| 20260507165611 | 62 | 16 | 0.0 | 0.0 | 0.00 | 0.19 | 0.19 | 53 | 1006.0 |
| 20260507165107 | 62 | 300 | 0.9 | 0.9 | 0.00 | 0.19 | 0.19 | 56 | 1006.1 |
| 20260507164603 | 64 | 316 | 2.6 | 2.6 | 0.00 | 0.19 | 0.19 | 50 | 1005.9 |
| 20260507164100 | 63 | 315 | 0.9 | 1.7 | 0.00 | 0.19 | 0.19 | 54 | 1005.9 |
| 20260507163558 | 62 | 272 | 1.7 | 2.6 | 0.00 | 0.19 | 0.19 | 52 | 1006.0 |
| 20260507163056 | 61 | 309 | 1.7 | 1.7 | 0.00 | 0.19 | 0.19 | 58 | 1006.2 |
| 20260507162556 | 63 | 341 | 2.6 | 2.6 | 0.00 | 0.19 | 0.19 | 54 | 1006.0 |
| 20260507162053 | 62 | 312 | 0.9 | 0.9 | 0.00 | 0.19 | 0.19 | 54 | 1005.8 |
| 20260507161549 | 61 | 283 | 0.0 | 0.0 | 0.00 | 0.19 | 0.19 | 56 | 1006.0 |
| 20260507161046 | 61 | 351 | 2.6 | 2.6 | 0.00 | 0.19 | 0.19 | 59 | 1006.1 |
| 20260507160542 | 61 | 12 | 0.9 | 0.9 | 0.00 | 0.19 | 0.19 | 57 | 1006.3 |
| 20260507160038 | 59 | 12 | 0.0 | 0.9 | 0.00 | 0.19 | 0.19 | 63 | 1006.3 |
| 20260507155534 | 61 | 291 | 1.7 | 1.7 | 0.00 | 0.19 | 0.19 | 57 | 1006.6 |
| 20260507155031 | 61 | 31 | 1.7 | 4.3 | 0.00 | 0.19 | 0.19 | 61 | 1006.6 |
| 20260507154528 | 60 | 354 | 1.7 | 1.7 | 0.00 | 0.19 | 0.19 | 62 | 1006.6 |
| 20260507154026 | 60 | 294 | 1.7 | 1.7 | 0.00 | 0.19 | 0.19 | 61 | 1006.7 |
| 20260507153522 | 60 | 26 | 0.0 | 0.0 | 0.00 | 0.19 | 0.19 | 67 | 1006.7 |
| 20260507153018 | 59 | 2 | 2.6 | 2.6 | 0.00 | 0.19 | 0.19 | 64 | 1006.9 |
| 20260507152514 | 59 | 314 | 2.6 | 2.6 | 0.00 | 0.19 | 0.19 | 65 | 1007.0 |
| 20260507152011 | 59 | 321 | 0.9 | 0.9 | 0.00 | 0.19 | 0.19 | 63 | 1007.0 |
| 20260507151507 | 58 | 307 | 1.7 | 1.7 | 0.00 | 0.19 | 0.19 | 67 | 1006.9 |
| 20260507151004 | 59 | 44 | 1.7 | 2.6 | 0.00 | 0.19 | 0.19 | 65 | 1006.9 |
| 20260507150501 | 58 | 314 | 1.7 | 1.7 | 0.00 | 0.19 | 0.19 | 63 | 1007.1 |
| 20260507145957 | 57 | 4 | 1.7 | 1.7 | 0.00 | 0.19 | 0.19 | 68 | 1007.2 |
| 20260507145453 | 59 | 315 | 4.3 | 6.1 | 0.00 | 0.19 | 0.19 | 64 | 1007.3 |
| 20260507144950 | 58 | 278 | 0.9 | 0.9 | 0.00 | 0.19 | 0.19 | 71 | 1007.0 |
| 20260507144447 | 58 | 293 | 1.7 | 1.7 | 0.00 | 0.19 | 0.19 | 69 | 1007.4 |
| 20260507143944 | 57 | 298 | 6.1 | 7.0 | 0.00 | 0.19 | 0.19 | 66 | 1007.2 |
| 20260507143442 | 57 | 288 | 0.9 | 0.9 | 0.00 | 0.19 | 0.19 | 70 | 1007.4 |
| 20260507142938 | 57 | 331 | 3.5 | 4.3 | 0.00 | 0.19 | 0.19 | 66 | 1007.3 |
| 20260507142434 | 57 | 313 | 1.7 | 4.3 | 0.00 | 0.19 | 0.19 | 71 | 1007.5 |
| 20260507141931 | 57 | 35 | 1.7 | 2.6 | 0.00 | 0.19 | 0.19 | 70 | 1007.5 |
| 20260507141427 | 56 | 312 | 0.9 | 1.7 | 0.00 | 0.19 | 0.19 | 75 | 1007.2 |
| 20260507140924 | 56 | 294 | 1.7 | 2.6 | 0.00 | 0.19 | 0.19 | 74 | 1007.5 |
| 20260507140420 | 56 | 281 | 2.6 | 4.3 | 0.00 | 0.19 | 0.19 | 74 | 1007.5 |
| 20260507135919 | 56 | 357 | 0.9 | 1.7 | 0.00 | 0.19 | 0.19 | 75 | 1007.7 |
| 20260507135414 | 55 | 330 | 0.9 | 0.9 | 0.00 | 0.19 | 0.19 | 77 | 1007.5 |
| 20260507134912 | 57 | 29 | 0.9 | 0.9 | 0.00 | 0.19 | 0.19 | 74 | 1007.7 |
| 20260507134408 | 55 | 325 | 0.0 | 0.9 | 0.00 | 0.19 | 0.19 | 78 | 1008.1 |
| 20260507133904 | 55 | 328 | 2.6 | 4.3 | 0.00 | 0.19 | 0.19 | 79 | 1007.9 |
| 20260507133400 | 55 | 345 | 2.6 | 4.3 | 0.00 | 0.19 | 0.19 | 76 | 1007.9 |
| 20260507132859 | 55 | 348 | 2.6 | 2.6 | 0.00 | 0.19 | 0.19 | 82 | 1008.1 |
| 20260507132355 | 54 | 357 | 0.9 | 1.7 | 0.00 | 0.19 | 0.19 | 84 | 1008.0 |
| 20260507131852 | 53 | 310 | 4.3 | 6.1 | 0.00 | 0.19 | 0.19 | 81 | 1008.0 |
| 20260507131349 | 53 | 351 | 0.9 | 0.9 | 0.00 | 0.19 | 0.19 | 84 | 1007.8 |
| 20260507130846 | 53 | 336 | 1.7 | 1.7 | 0.00 | 0.19 | 0.19 | 83 | 1007.9 |
| 20260507130343 | 53 | 319 | 1.7 | 1.7 | 0.00 | 0.19 | 0.19 | 85 | 1007.7 |
| 20260507125842 | 52 | 312 | 0.9 | 1.7 | 0.00 | 0.19 | 0.19 | 87 | 1008.1 |
| 20260507125339 | 52 | 317 | 2.6 | 4.3 | 0.00 | 0.19 | 0.19 | 86 | 1007.8 |
| 20260507124836 | 51 | 328 | 0.9 | 1.7 | 0.00 | 0.19 | 0.19 | 89 | 1007.6 |
| 20260507124332 | 50 | 349 | 0.0 | 0.0 | 0.00 | 0.19 | 0.19 | 92 | 1007.6 |
| 20260507123831 | 50 | 0 | 0.0 | 0.0 | 0.00 | 0.19 | 0.19 | 96 | 1007.7 |
| 20260507123328 | 48 | 305 | 0.9 | 1.7 | 0.00 | 0.19 | 0.19 | 96 | 1007.5 |